Time,TemperatureF,DewpointF,PressureIn,WindDirection,WindDirectionDegrees,WindSpeedMPH,WindSpeedGustMPH,Humidity,HourlyPrecipIn,Conditions,Clouds,dailyrainin,SolarRadiationWatts/m^2,SoftwareType,DateUTC
2013-05-13 00:01:00,60.0,45.0,-100.00,WSW,242,2.0,4.0,58,0.00,,,-99.99,1.000000,,2013-05-13 06:01:00,
2013-05-13 00:22:00,60.0,45.0,-100.00,WSW,242,2.0,4.0,58,0.00,,,-99.99,1.000000,,2013-05-13 06:22:00,
2013-05-13 00:32:00,60.0,45.0,-100.00,WSW,242,2.0,4.0,58,0.00,,,-99.99,1.000000,,2013-05-13 06:32:00,
2013-05-13 00:42:00,60.0,45.0,-100.00,WSW,242,2.0,4.0,58,0.00,,,-99.99,1.000000,,2013-05-13 06:42:00,
2013-05-13 00:52:00,60.0,45.0,-100.00,WSW,242,2.0,4.0,58,0.00,,,-99.99,1.000000,,2013-05-13 06:52:00,
2013-05-13 01:01:00,62.0,47.0,-100.00,WSW,253,1.0,3.0,58,0.00,,,0.00,1.000000,,2013-05-13 07:01:00,
2013-05-13 01:32:00,62.0,47.0,-100.00,WSW,253,1.0,3.0,58,0.00,,,0.00,1.000000,,2013-05-13 07:32:00,
2013-05-13 01:42:00,62.0,47.0,-100.00,WSW,253,1.0,3.0,58,0.00,,,0.00,1.000000,,2013-05-13 07:42:00,
2013-05-13 01:52:00,62.0,47.0,-100.00,WSW,253,1.0,3.0,58,0.00,,,0.00,1.000000,,2013-05-13 07:52:00,
2013-05-13 02:01:00,59.0,44.0,-100.00,SW,219,2.0,4.0,58,0.00,,,-99.99,1.000000,,2013-05-13 08:01:00,
2013-05-13 02:22:00,59.0,44.0,-100.00,SW,219,2.0,4.0,58,0.00,,,-99.99,1.000000,,2013-05-13 08:22:00,
2013-05-13 02:32:00,59.0,44.0,-100.00,SW,219,2.0,4.0,58,0.00,,,-99.99,1.000000,,2013-05-13 08:32:00,
2013-05-13 02:42:00,59.0,44.0,-100.00,SW,219,2.0,4.0,58,0.00,,,-99.99,1.000000,,2013-05-13 08:42:00,
2013-05-13 02:52:00,59.0,44.0,-100.00,SW,219,2.0,4.0,58,0.00,,,-99.99,1.000000,,2013-05-13 08:52:00,
2013-05-13 03:01:00,56.0,47.0,-100.00,SW,235,1.0,4.0,71,0.00,,,0.00,1.000000,,2013-05-13 09:01:00,
2013-05-13 03:33:00,56.0,47.0,-100.00,SW,235,1.0,4.0,71,0.00,,,0.00,1.000000,,2013-05-13 09:33:00,
2013-05-13 03:42:00,56.0,47.0,-100.00,SW,235,1.0,4.0,71,0.00,,,0.00,1.000000,,2013-05-13 09:42:00,
2013-05-13 03:52:00,56.0,47.0,-100.00,SW,235,1.0,4.0,71,0.00,,,0.00,1.000000,,2013-05-13 09:52:00,
2013-05-13 04:01:00,54.0,46.0,-100.00,SW,225,2.0,4.0,73,0.00,,,0.00,1.000000,,2013-05-13 10:01:00,
2013-05-13 04:22:00,54.0,46.0,-100.00,SW,225,2.0,4.0,73,0.00,,,0.00,1.000000,,2013-05-13 10:22:00,
2013-05-13 04:33:00,54.0,46.0,-100.00,SW,225,2.0,4.0,73,0.00,,,0.00,1.000000,,2013-05-13 10:33:00,
2013-05-13 04:42:00,54.0,46.0,-100.00,SW,225,2.0,4.0,73,0.00,,,0.00,1.000000,,2013-05-13 10:42:00,
2013-05-13 04:52:00,54.0,46.0,-100.00,SW,225,2.0,4.0,73,0.00,,,0.00,1.000000,,2013-05-13 10:52:00,
2013-05-13 05:01:00,54.0,47.0,-100.00,SSW,211,1.0,5.0,78,0.00,,,0.00,1.000000,,2013-05-13 11:01:00,
2013-05-13 05:22:00,54.0,47.0,-100.00,SSW,211,1.0,5.0,78,0.00,,,0.00,1.000000,,2013-05-13 11:22:00,
2013-05-13 05:32:00,54.0,47.0,-100.00,SSW,211,1.0,5.0,78,0.00,,,0.00,1.000000,,2013-05-13 11:32:00,
2013-05-13 05:42:00,54.0,47.0,-100.00,SSW,211,1.0,5.0,78,0.00,,,0.00,1.000000,,2013-05-13 11:42:00,
2013-05-13 05:52:00,54.0,47.0,-100.00,SSW,211,1.0,5.0,78,0.00,,,0.00,1.000000,,2013-05-13 11:52:00,
2013-05-13 06:01:00,52.0,47.0,-100.00,SSW,202,2.0,4.0,83,0.00,,,0.00,1.000000,,2013-05-13 12:01:00,
2013-05-13 06:32:00,52.0,47.0,-100.00,SSW,202,2.0,4.0,83,0.00,,,0.00,1.000000,,2013-05-13 12:32:00,
2013-05-13 06:42:00,52.0,47.0,-100.00,SSW,202,2.0,4.0,83,0.00,,,0.00,1.000000,,2013-05-13 12:42:00,
2013-05-13 06:52:00,52.0,47.0,-100.00,SSW,202,2.0,4.0,83,0.00,,,0.00,1.000000,,2013-05-13 12:52:00,
2013-05-13 07:01:00,54.0,49.0,-100.00,SSW,207,3.0,5.0,83,0.00,,,0.00,14.000000,,2013-05-13 13:01:00,
2013-05-13 07:32:00,54.0,49.0,-100.00,SSW,207,3.0,5.0,83,0.00,,,0.00,14.000000,,2013-05-13 13:32:00,
2013-05-13 07:42:00,54.0,49.0,-100.00,SSW,207,3.0,5.0,83,0.00,,,0.00,14.000000,,2013-05-13 13:42:00,
2013-05-13 07:52:00,54.0,49.0,-100.00,SSW,207,3.0,5.0,83,0.00,,,0.00,14.000000,,2013-05-13 13:52:00,
2013-05-13 09:01:00,66.0,52.0,-100.00,SE,139,5.0,9.0,60,-99.99,,,0.00,309.000000,,2013-05-13 15:01:00,
2013-05-13 09:32:00,66.0,52.0,-100.00,SE,139,5.0,9.0,60,-99.99,,,0.00,309.000000,,2013-05-13 15:32:00,
2013-05-13 09:42:00,66.0,52.0,-100.00,SE,139,5.0,9.0,60,-99.99,,,0.00,309.000000,,2013-05-13 15:42:00,
2013-05-13 09:53:00,66.0,52.0,-100.00,SE,139,5.0,9.0,60,-99.99,,,0.00,309.000000,,2013-05-13 15:53:00,
2013-05-13 10:01:00,69.0,53.0,-100.00,SSE,156,4.0,9.0,57,0.00,,,0.00,377.000000,,2013-05-13 16:01:00,
2013-05-13 10:22:00,69.0,53.0,-100.00,SSE,156,4.0,9.0,57,0.00,,,0.00,377.000000,,2013-05-13 16:22:00,
2013-05-13 10:33:00,69.0,53.0,-100.00,SSE,156,4.0,9.0,57,0.00,,,0.00,377.000000,,2013-05-13 16:33:00,
2013-05-13 10:43:00,69.0,53.0,-100.00,SSE,156,4.0,9.0,57,0.00,,,0.00,377.000000,,2013-05-13 16:43:00,
2013-05-13 10:52:00,69.0,53.0,-100.00,SSE,156,4.0,9.0,57,0.00,,,0.00,377.000000,,2013-05-13 16:52:00,
2013-05-13 11:01:00,71.0,50.0,-100.00,SE,134,3.0,10.0,47,0.00,,,0.00,420.000000,,2013-05-13 17:01:00,
2013-05-13 11:32:00,71.0,50.0,-100.00,SE,134,3.0,10.0,47,0.00,,,0.00,420.000000,,2013-05-13 17:32:00,
2013-05-13 11:42:00,71.0,50.0,-100.00,SE,134,3.0,10.0,47,0.00,,,0.00,420.000000,,2013-05-13 17:42:00,
2013-05-13 11:54:00,71.0,50.0,-100.00,SE,134,3.0,10.0,47,0.00,,,0.00,420.000000,,2013-05-13 17:54:00,
2013-05-13 13:01:00,72.0,48.0,-100.00,North,357,3.0,7.0,43,-99.99,,,0.00,378.000000,,2013-05-13 19:01:00,
2013-05-13 13:32:00,72.0,48.0,-100.00,North,357,3.0,7.0,43,-99.99,,,0.00,378.000000,,2013-05-13 19:32:00,
2013-05-13 13:44:00,72.0,48.0,-100.00,North,357,3.0,7.0,43,-99.99,,,0.00,378.000000,,2013-05-13 19:44:00,
2013-05-13 13:53:00,72.0,48.0,-100.00,North,357,3.0,7.0,43,-99.99,,,0.00,378.000000,,2013-05-13 19:53:00,
2013-05-13 14:01:00,77.0,52.0,-100.00,SSE,155,3.0,10.0,42,0.00,,,0.00,587.000000,,2013-05-13 20:01:00,
2013-05-13 14:23:00,77.0,52.0,-100.00,SSE,155,3.0,10.0,42,0.00,,,0.00,587.000000,,2013-05-13 20:23:00,
2013-05-13 14:34:00,77.0,52.0,-100.00,SSE,155,3.0,10.0,42,0.00,,,0.00,587.000000,,2013-05-13 20:34:00,
2013-05-13 14:44:00,77.0,52.0,-100.00,SSE,155,3.0,10.0,42,0.00,,,0.00,587.000000,,2013-05-13 20:44:00,
2013-05-13 14:53:00,77.0,52.0,-100.00,SSE,155,3.0,10.0,42,0.00,,,0.00,587.000000,,2013-05-13 20:53:00,
2013-05-13 15:01:00,81.0,52.0,-100.00,NE,56,3.0,8.0,37,0.00,,,0.00,556.000000,,2013-05-13 21:01:00,
2013-05-13 15:23:00,81.0,52.0,-100.00,NE,56,3.0,8.0,37,0.00,,,0.00,556.000000,,2013-05-13 21:23:00,
2013-05-13 15:33:00,81.0,52.0,-100.00,NE,56,3.0,8.0,37,0.00,,,0.00,556.000000,,2013-05-13 21:33:00,
2013-05-13 15:43:00,81.0,52.0,-100.00,NE,56,3.0,8.0,37,0.00,,,0.00,556.000000,,2013-05-13 21:43:00,
2013-05-13 15:53:00,81.0,52.0,-100.00,NE,56,3.0,8.0,37,0.00,,,0.00,556.000000,,2013-05-13 21:53:00,
2013-05-13 16:01:00,80.0,42.0,-100.00,ESE,107,5.0,21.0,26,0.00,,,-99.99,534.000000,,2013-05-13 22:01:00,
2013-05-13 16:32:00,80.0,42.0,-100.00,ESE,107,5.0,21.0,26,0.00,,,-99.99,534.000000,,2013-05-13 22:32:00,
2013-05-13 16:43:00,80.0,42.0,-100.00,ESE,107,5.0,21.0,26,0.00,,,-99.99,534.000000,,2013-05-13 22:43:00,
2013-05-13 16:52:00,80.0,42.0,-100.00,ESE,107,5.0,21.0,26,0.00,,,-99.99,534.000000,,2013-05-13 22:52:00,
2013-05-13 17:01:00,69.0,55.0,-100.00,North,352,5.0,12.0,62,0.01,,,0.01,84.000000,,2013-05-13 23:01:00,
2013-05-13 17:23:00,69.0,55.0,-100.00,North,352,5.0,12.0,62,0.01,,,0.01,84.000000,,2013-05-13 23:23:00,
2013-05-13 17:34:00,69.0,55.0,-100.00,North,352,5.0,12.0,62,0.01,,,0.01,84.000000,,2013-05-13 23:34:00,
2013-05-13 17:42:00,69.0,55.0,-100.00,North,352,5.0,12.0,62,0.01,,,0.01,84.000000,,2013-05-13 23:42:00,
2013-05-13 17:54:00,69.0,55.0,-100.00,North,352,5.0,12.0,62,0.01,,,0.01,84.000000,,2013-05-13 23:54:00,
2013-05-13 18:01:00,63.0,56.0,-100.00,East,92,3.0,12.0,79,0.09,,,0.10,138.000000,,2013-05-14 00:01:00,
2013-05-13 18:22:00,63.0,56.0,-100.00,East,92,3.0,12.0,79,0.09,,,0.10,138.000000,,2013-05-14 00:22:00,
2013-05-13 18:32:00,63.0,56.0,-100.00,East,92,3.0,12.0,79,0.09,,,0.10,138.000000,,2013-05-14 00:32:00,
2013-05-13 18:42:00,63.0,56.0,-100.00,East,92,3.0,12.0,79,0.09,,,0.10,138.000000,,2013-05-14 00:42:00,
2013-05-13 18:51:00,63.0,56.0,-100.00,East,92,3.0,12.0,79,0.09,,,0.10,138.000000,,2013-05-14 00:51:00,
2013-05-13 19:01:00,61.0,55.0,-100.00,East,81,4.0,14.0,80,0.06,,,0.16,88.000000,,2013-05-14 01:01:00,
2013-05-13 19:32:00,61.0,55.0,-100.00,East,81,4.0,14.0,80,0.06,,,0.16,88.000000,,2013-05-14 01:32:00,
2013-05-13 19:43:00,61.0,55.0,-100.00,East,81,4.0,14.0,80,0.06,,,0.16,88.000000,,2013-05-14 01:43:00,
2013-05-13 19:53:00,61.0,55.0,-100.00,East,81,4.0,14.0,80,0.06,,,0.16,88.000000,,2013-05-14 01:53:00,
2013-05-13 20:22:00,59.0,56.0,-100.00,North,359,4.0,8.0,90,0.01,,,-99.99,61.000000,,2013-05-14 02:22:00,
2013-05-13 20:32:00,59.0,56.0,-100.00,North,359,4.0,8.0,90,0.01,,,-99.99,61.000000,,2013-05-14 02:32:00,
2013-05-13 20:42:00,59.0,56.0,-100.00,North,359,4.0,8.0,90,0.01,,,-99.99,61.000000,,2013-05-14 02:42:00,
2013-05-13 20:52:00,59.0,56.0,-100.00,North,359,4.0,8.0,90,0.01,,,-99.99,61.000000,,2013-05-14 02:52:00,
2013-05-13 21:01:00,51.0,43.0,-100.00,ENE,70,5.0,19.0,73,0.08,,,0.25,14.000000,,2013-05-14 03:01:00,
2013-05-13 21:21:00,51.0,43.0,-100.00,ENE,70,5.0,19.0,73,0.08,,,0.25,14.000000,,2013-05-14 03:21:00,
2013-05-13 21:33:00,51.0,43.0,-100.00,ENE,70,5.0,19.0,73,0.08,,,0.25,14.000000,,2013-05-14 03:33:00,
2013-05-13 21:42:00,51.0,43.0,-100.00,ENE,70,5.0,19.0,73,0.08,,,0.25,14.000000,,2013-05-14 03:42:00,
2013-05-13 21:53:00,51.0,43.0,-100.00,ENE,70,5.0,19.0,73,0.08,,,0.25,14.000000,,2013-05-14 03:53:00,
2013-05-13 22:01:00,47.0,45.0,-100.00,North,350,3.0,14.0,92,0.06,,,0.31,1.000000,,2013-05-14 04:01:00,
2013-05-13 22:32:00,47.0,45.0,-100.00,North,350,3.0,14.0,92,0.06,,,0.31,1.000000,,2013-05-14 04:32:00,
2013-05-13 22:43:00,47.0,45.0,-100.00,North,350,3.0,14.0,92,0.06,,,0.31,1.000000,,2013-05-14 04:43:00,
2013-05-13 22:53:00,47.0,45.0,-100.00,North,350,3.0,14.0,92,0.06,,,0.31,1.000000,,2013-05-14 04:53:00,
2013-05-13 23:22:00,45.0,42.0,-100.00,WSW,254,2.0,6.0,88,0.00,,,0.31,1.000000,,2013-05-14 05:22:00,
2013-05-13 23:32:00,45.0,42.0,-100.00,WSW,254,2.0,6.0,88,0.00,,,0.31,1.000000,,2013-05-14 05:32:00,